Flag for U.S.A. Weather past 2 weeks in Fort Myers, Florida, U.S.A.

Now
84 °F

Sunny.


Feels Like: 95 °F
Forecast: 74 / 92 °F
Wind: 7 mph from East

Location: Page Field

Current Time: Jul 5, 2015 at 11:01:27 AM

Latest Report: Jul 5, 2015 at 9:53 AM


Visibility: 9 mi

Pressure: 30.16 "Hg

Humidity: 83%

Dew point: 78 °F

Location of Fort MyersLocation

Historic Weather in Fort Myers — Graph

°F

Fort Myers temperature yesterday

Maximum temperature yesterday: 94 °F (at 4:53 PM)
Minimum temperature yesterday: 73 °F (at 2:53 AM)
Average temperature yesterday: 80 °F

Past Weeks' High & Low Weather Summary

 TemperatureHumidityPressure
High95 °F (Jun 21, 2:53 PM)100% (Jun 25, 3:53 AM)30.16 "Hg (Jun 25, 3:53 AM)
Low73 °F (Jun 26, 2:53 AM)40% (Jul 1, 1:53 PM)30.01 "Hg (Jun 28, 3:53 AM)
Average82 °F77%30.09 "Hg
* Reported Jun 20 9:53 AM — Jul 5 9:53 AM, Fort Myers, Weather by CustomWeather, © 2015

Note: Actual official high and low records may vary slightly from our data, if they occured in-between our weather recording intervals... More about our weather records

Advertising

Fort Myers weather history for previous 24 hours

 ConditionsComfort  
Time TempWeatherWind HumidityBarometerVisibility
9:53 AM
Sun, Jul 5
84 °FSunny.7 mph83%30.16 "Hg9 mi
8:53 AM81 °FSunny.6 mph88%30.16 "Hg7 mi
7:53 AM77 °FFog.5 mph96%30.13 "Hg5 mi
6:53 AM75 °FFog.No wind96%30.12 "Hg5 mi
5:53 AM75 °FClear.3 mph96%30.11 "Hg7 mi
4:53 AM75 °FClear.3 mph96%30.10 "Hg7 mi
3:53 AM75 °FClear.No wind96%30.11 "Hg7 mi
2:53 AM76 °FClear.No wind97%30.11 "Hg8 mi
1:53 AM76 °FClear.No wind97%30.12 "Hg7 mi
12:53 AM76 °FClear.5 mph94%30.13 "Hg7 mi
11:53 PM
Sat, Jul 4
76 °FClear.3 mph94%30.13 "Hg7 mi
10:53 PM77 °FFog.3 mph90%30.13 "Hg6 mi
9:53 PM77 °FClear.5 mph90%30.11 "Hg8 mi
8:53 PM77 °FSunny.5 mph88%30.09 "Hg10 mi
7:53 PM78 °FSunny.No wind84%30.09 "Hg10 mi
6:53 PM75 °FLight rain. Broken clouds.6 mph88%30.08 "Hg10 mi
5:53 PM73 °FStrong thunderstorms. Fog.21 mph94%30.10 "Hg1 mi
4:53 PM94 °FThundershowers. Scattered clouds.7 mph49%30.04 "Hg10 mi
3:53 PM92 °FPassing clouds.5 mph56%30.05 "Hg10 mi
2:53 PM92 °FScattered clouds.5 mph52%30.08 "Hg10 mi
1:53 PM92 °FPassing clouds.8 mph56%30.10 "Hg10 mi
12:53 PM89 °FPassing clouds.6 mph59%30.12 "Hg10 mi
11:53 AM88 °FSunny.3 mph63%30.13 "Hg10 mi
Weather by CustomWeather, © 2015

See weather overviewHow to use our weather pages